Location: *
(49.3500°N, 12.6000°E)
Time: 01:48:41
(UTC+00:00)

YAOGAN 1 - Pass Details

Date: 18 October 2019
Orbit: 619 x 621 km, 98.0° (Epoch: 16 November)

Event Time Altitude Azimuth Distance (km) Brightness Sun altitude
Rises 16:47:55 0° 143° (SE) 2,889 5.7 -6.2°
Reaches altitude 10° 16:50:13 10° 135° (SE) 1,987 4.8 -6.6°
Maximum altitude 16:54:12 38° 68° (ENE) 960 3.1 -7.2°
Drops below altitude 10° 16:58:13 10° 0° (N) 2,001 5.1 -7.9°
Sets 17:00:31 0° 353° (N) 2,911 6.0 -8.3°
